Weather History for The Dalles, OR

Change the Weather History Date:

Tuesday, June 18, 2013

  Actual Average Record
Temperature  
Mean Temperature 67 °F -  
Max Temperature 75 °F 83 °F 102 °F (1985)
Min Temperature 59 °F 55 °F 41 °F (1954)
Cooling Degree Days 2    
Growing Degree Days 17 (Base 50)    
Moisture  
Dew Point 44 °F    
Average Humidity 47    
Maximum Humidity 64    
Minimum Humidity 26    
Precipitation  
Precipitation 0.00 in - - ()
Sea Level Pressure  
Sea Level Pressure 29.91 in    
Wind  
Wind Speed 13 mph (WNW)    
Max Wind Speed 20 mph    
Max Gust Speed 28 mph    
Visibility 10 miles    
Events      
Averages and records for this station are not official NWS values.
T = Trace of Precipitation, MM = Missing Value Source: NWS Daily Summary

Daily Weather History Graph

Daily Weather History Graph

Search for Another Location

Airport:

Trip Planner

Search our weather history database for the weather conditions in past years. The results will help you decide how hot, cold, wet, or windy it might be!

Date:

Astronomy

Jun. 18, 2013 Rise Set
Actual Time 5:14 AM PDT 8:56 PM PDT
Civil Twilight 4:36 AM PDT 9:35 PM PDT
Nautical Twilight 3:45 AM PDT 10:26 PM PDT
Astronomical Twilight 2:35 AM PDT 11:36 PM PDT
Moon 3:36 PM PDT (6/18) 1:39 AM PDT (6/18)
Length of Visible Light 16h 58m
Length of Day
15h 41m
Waxing Gibbous, 72% of the Moon is Illuminated
Jun 18
Waxing Gibbous
Jun 23
Full
Jun 29
Last Quarter
Jul 8
New
Jul 15
First Quarter

Hourly Weather History & Observations

Time (PDT) Temp. Dew Point Humidity Pressure Visibility Wind Dir Wind Speed Gust Speed Precip Events Conditions
12:53 AM 64.0 °F 48.0 °F 56% 29.95 in 10.0 mi WNW 15.0 mph - N/A   Mostly Cloudy
1:53 AM 63.0 °F 46.9 °F 56% 29.94 in 10.0 mi WNW 16.1 mph 24.2 mph N/A   Mostly Cloudy
2:53 AM 62.1 °F 46.9 °F 58% 29.96 in 10.0 mi WNW 12.7 mph - N/A   Overcast
3:53 AM 61.0 °F 46.0 °F 58% 29.95 in 10.0 mi WNW 15.0 mph - N/A   Mostly Cloudy
4:53 AM 60.1 °F 46.9 °F 62% 29.96 in 10.0 mi West 10.4 mph - N/A   Mostly Cloudy
5:53 AM 59.0 °F 46.9 °F 64% 29.96 in 10.0 mi WNW 4.6 mph - N/A   Mostly Cloudy
6:53 AM 61.0 °F 48.0 °F 62% 29.97 in 10.0 mi NW 9.2 mph - N/A   Mostly Cloudy
7:53 AM 62.1 °F 46.9 °F 58% 29.97 in 10.0 mi NW 12.7 mph 20.7 mph N/A   Overcast
8:53 AM 64.9 °F 46.0 °F 50% 29.96 in 10.0 mi NW 16.1 mph 23.0 mph N/A   Overcast
9:53 AM 64.0 °F 45.0 °F 50% 29.95 in 10.0 mi NW 12.7 mph 19.6 mph N/A   Overcast
10:53 AM 66.0 °F 45.0 °F 47% 29.94 in 10.0 mi NW 9.2 mph - N/A   Overcast
11:53 AM 66.9 °F 44.1 °F 44% 29.93 in 10.0 mi NW 9.2 mph - N/A   Overcast
12:53 PM 70.0 °F 43.0 °F 38% 29.91 in 10.0 mi NNW 9.2 mph - N/A   Overcast
1:53 PM 71.1 °F 42.1 °F 35% 29.89 in 10.0 mi NW 9.2 mph - N/A   Mostly Cloudy
2:53 PM 72.0 °F 39.0 °F 30% 29.88 in 10.0 mi NW 10.4 mph 19.6 mph N/A   Overcast
3:53 PM 73.9 °F 39.0 °F 28% 29.86 in 10.0 mi WNW 11.5 mph 17.3 mph N/A   Scattered Clouds
4:53 PM 75.9 °F 39.0 °F 26% 29.85 in 10.0 mi WNW 13.8 mph 21.9 mph N/A   Partly Cloudy
5:53 PM 75.0 °F 37.9 °F 26% 29.83 in 10.0 mi WNW 17.3 mph 26.5 mph N/A   Clear
6:53 PM 69.1 °F 39.9 °F 35% 29.86 in 10.0 mi West 16.1 mph 27.6 mph N/A   Clear
7:53 PM 68.0 °F 42.1 °F 39% 29.86 in 10.0 mi NW 13.8 mph - N/A   Clear
8:53 PM 64.0 °F 42.1 °F 45% 29.87 in 10.0 mi NW 11.5 mph - N/A   Clear
9:53 PM 61.0 °F 45.0 °F 56% 29.89 in 10.0 mi NW 16.1 mph 23.0 mph N/A   Clear
10:53 PM 62.1 °F 42.1 °F 48% 29.90 in 10.0 mi West 19.6 mph 26.5 mph N/A   Clear
11:53 PM 60.1 °F 43.0 °F 53% 29.90 in 10.0 mi West 13.8 mph 23.0 mph N/A   Clear